• In Hungary
  • List of Countries
  • For 7 days
  • Water Temperature
  • Satellite Maps
  • Weather Map
  • News
  • Weather Widgets
  • user-avatar
    Login

    Hourly Weather Khulna

    Today, 23 January, Tuesday

    Time Temperature Precipitation Wind Pressure Humidity
    00:00 +20°C° 0 mm 1 mps 758 mmHg 36%
    01:00 +20°C° 0 mm 1 mps 758 mmHg 37%
    02:00 +19°C° 0 mm 1 mps 757 mmHg 37%
    03:00 +18°C° 0 mm 2 mps 757 mmHg 38%
    04:00 +18°C° 0 mm 2 mps 757 mmHg 39%
    05:00 +17°C° 0 mm 2 mps 757 mmHg 40%
    06:00 +16°C° 0 mm 2 mps 758 mmHg 44%
    07:00 +18°C° 0 mm 2 mps 758 mmHg 42%
    08:00 +20°C° 0 mm 1 mps 759 mmHg 40%
    09:00 +22°C° 0 mm 1 mps 759 mmHg 38%
    10:00 +24°C° 0 mm 1 mps 759 mmHg 35%
    11:00 +26°C° 0 mm 1 mps 759 mmHg 31%
    12:00 +28°C° 0 mm 1 mps 758 mmHg 28%
    13:00 +28°C° 0 mm 2 mps 758 mmHg 26%
    14:00 +29°C° 0 mm 2 mps 757 mmHg 24%
    15:00 +30°C° 0 mm 2 mps 756 mmHg 22%
    16:00 +28°C° 0 mm 1 mps 756 mmHg 24%
    17:00 +26°C° 0 mm 1 mps 756 mmHg 26%
    18:00 +25°C° 0 mm 1 mps 756 mmHg 28%
    19:00 +24°C° 0 mm 1 mps 756 mmHg 31%
    20:00 +23°C° 0 mm 1 mps 757 mmHg 34%
    21:00 +22°C° 0 mm 1 mps 757 mmHg 36%
    22:00 +22°C° 0 mm 1 mps 757 mmHg 38%
    23:00 +21°C° 0 mm 1 mps 757 mmHg 40%

    Tomorrow, 24 January, Wednesday

    Time Temperature Precipitation Wind Pressure Humidity
    00:00 +20°C° 0 mm 1 mps 757 mmHg 42%
    01:00 +20°C° 0 mm 1 mps 757 mmHg 43%
    02:00 +19°C° 0 mm 1 mps 757 mmHg 44%
    03:00 +17°C° 0 mm 0 mps 757 mmHg 44%
    04:00 +17°C° 0 mm 0 mps 757 mmHg 45%
    05:00 +16°C° 0 mm 0 mps 757 mmHg 45%
    06:00 +16°C° 0 mm 0 mps 757 mmHg 46%
    07:00 +18°C° 0 mm 0 mps 757 mmHg 42%
    08:00 +20°C° 0 mm 0 mps 758 mmHg 38%
    09:00 +22°C° 0 mm 0 mps 758 mmHg 34%
    10:00 +24°C° 0 mm 0 mps 758 mmHg 30%
    11:00 +26°C° 0 mm 0 mps 758 mmHg 26%
    12:00 +30°C° 0 mm 1 mps 758 mmHg 22%
    13:00 +31°C° 0 mm 1 mps 757 mmHg 21%
    14:00 +31°C° 0 mm 1 mps 756 mmHg 21%
    15:00 +32°C° 0 mm 1 mps 755 mmHg 20%
    16:00 +30°C° 0 mm 1 mps 755 mmHg 22%
    17:00 +28°C° 0 mm 1 mps 755 mmHg 25%
    18:00 +27°C° 0 mm 1 mps 755 mmHg 28%
    19:00 +26°C° 0 mm 2 mps 755 mmHg 33%
    20:00 +25°C° 0 mm 2 mps 755 mmHg 39%
    21:00 +24°C° 0 mm 3 mps 756 mmHg 44%
    22:00 +22°C° 0 mm 3 mps 756 mmHg 49%
    23:00 +23°C° 0 mm 2 mps 756 mmHg 54%

    Day after tomorrow, 25 January, Thursday

    Time Temperature Precipitation Wind Pressure Humidity
    00:00 +21°C° 0 mm 2 mps 756 mmHg 58%
    01:00 +21°C° 0 mm 2 mps 756 mmHg 58%
    02:00 +20°C° 0 mm 3 mps 756 mmHg 58%
    03:00 +20°C° 0 mm 3 mps 756 mmHg 59%
    04:00 +19°C° 0 mm 3 mps 756 mmHg 58%
    05:00 +19°C° 0 mm 3 mps 756 mmHg 57%
    06:00 +18°C° 0 mm 3 mps 756 mmHg 57%
    07:00 +20°C° 0 mm 3 mps 757 mmHg 53%
    08:00 +21°C° 0 mm 4 mps 757 mmHg 50%
    09:00 +22°C° 0 mm 4 mps 758 mmHg 46%
    10:00 +25°C° 0 mm 4 mps 758 mmHg 40%
    11:00 +27°C° 0 mm 4 mps 758 mmHg 35%
    12:00 +28°C° 0 mm 3 mps 758 mmHg 29%
    13:00 +29°C° 0 mm 3 mps 757 mmHg 26%
    14:00 +29°C° 0 mm 3 mps 756 mmHg 24%
    15:00 +30°C° 0 mm 3 mps 755 mmHg 22%
    16:00 +28°C° 0 mm 3 mps 755 mmHg 24%
    17:00 +27°C° 0 mm 2 mps 755 mmHg 26%
    18:00 +25°C° 0 mm 2 mps 755 mmHg 29%
    19:00 +24°C° 0 mm 2 mps 756 mmHg 31%
    20:00 +23°C° 0 mm 2 mps 757 mmHg 32%
    21:00 +23°C° 0 mm 2 mps 757 mmHg 34%
    22:00 +21°C° 0 mm 2 mps 757 mmHg 35%
    23:00 +20°C° 0 mm 2 mps 757 mmHg 36%

    26 January, Friday

    Time Temperature Precipitation Wind Pressure Humidity
    00:00 +20°C° 0 mm 2 mps 757 mmHg 37%
    01:00 +19°C° 0 mm 2 mps 757 mmHg 39%
    02:00 +19°C° 0 mm 2 mps 757 mmHg 42%
    03:00 +18°C° 0 mm 3 mps 756 mmHg 44%
    04:00 +18°C° 0 mm 2 mps 757 mmHg 48%
    05:00 +17°C° 0 mm 2 mps 757 mmHg 52%
    06:00 +17°C° 0 mm 2 mps 757 mmHg 56%
    07:00 +18°C° 0 mm 2 mps 758 mmHg 53%
    08:00 +20°C° 0 mm 3 mps 759 mmHg 50%
    09:00 +22°C° 0 mm 3 mps 759 mmHg 46%
    10:00 +24°C° 0 mm 3 mps 759 mmHg 41%
    11:00 +26°C° 0 mm 3 mps 759 mmHg 35%
    12:00 +28°C° 0 mm 3 mps 758 mmHg 29%
    13:00 +28°C° 0 mm 3 mps 758 mmHg 27%
    14:00 +29°C° 0 mm 4 mps 757 mmHg 26%
    15:00 +29°C° 0 mm 4 mps 756 mmHg 24%
    16:00 +28°C° 0 mm 3 mps 756 mmHg 27%
    17:00 +26°C° 0 mm 3 mps 756 mmHg 30%
    18:00 +25°C° 0 mm 2 mps 756 mmHg 33%
    19:00 +24°C° 0 mm 2 mps 756 mmHg 35%
    20:00 +23°C° 0 mm 2 mps 757 mmHg 37%
    21:00 +22°C° 0 mm 1 mps 758 mmHg 39%
    22:00 +22°C° 0 mm 1 mps 758 mmHg 41%
    23:00 +21°C° 0 mm 1 mps 758 mmHg 43%

    27 January, Saturday

    Time Temperature Precipitation Wind Pressure Humidity
    00:00 +20°C° 0 mm 1 mps 757 mmHg 44%
    01:00 +19°C° 0 mm 2 mps 757 mmHg 46%
    02:00 +18°C° 0 mm 2 mps 757 mmHg 47%
    03:00 +18°C° 0 mm 2 mps 757 mmHg 49%
    04:00 +17°C° 0 mm 2 mps 757 mmHg 51%
    05:00 +17°C° 0 mm 2 mps 757 mmHg 52%
    06:00 +17°C° 0 mm 2 mps 758 mmHg 54%
    07:00 +18°C° 0 mm 2 mps 758 mmHg 50%
    08:00 +20°C° 0 mm 2 mps 759 mmHg 46%
    09:00 +23°C° 0 mm 2 mps 760 mmHg 42%
    10:00 +24°C° 0 mm 2 mps 759 mmHg 36%
    11:00 +26°C° 0 mm 3 mps 759 mmHg 30%
    12:00 +28°C° 0 mm 3 mps 758 mmHg 24%
    13:00 +28°C° 0 mm 3 mps 758 mmHg 23%
    14:00 +29°C° 0 mm 4 mps 757 mmHg 21%
    15:00 +29°C° 0 mm 4 mps 756 mmHg 20%
    16:00 +27°C° 0 mm 3 mps 756 mmHg 23%
    17:00 +26°C° 0 mm 3 mps 756 mmHg 25%
    18:00 +24°C° 0 mm 2 mps 756 mmHg 28%
    19:00 +23°C° 0 mm 2 mps 757 mmHg 29%
    20:00 +22°C° 0 mm 1 mps 757 mmHg 31%
    21:00 +21°C° 0 mm 1 mps 758 mmHg 32%
    22:00 +21°C° 0 mm 1 mps 758 mmHg 33%
    23:00 +20°C° 0 mm 1 mps 758 mmHg 34%

    28 January, Sunday

    Time Temperature Precipitation Wind Pressure Humidity
    00:00 +20°C° 0 mm 1 mps 758 mmHg 35%
    01:00 +19°C° 0 mm 1 mps 757 mmHg 36%
    02:00 +18°C° 0 mm 2 mps 757 mmHg 37%
    03:00 +17°C° 0 mm 2 mps 757 mmHg 38%
    04:00 +17°C° 0 mm 2 mps 757 mmHg 40%
    05:00 +17°C° 0 mm 2 mps 758 mmHg 41%
    06:00 +16°C° 0 mm 2 mps 758 mmHg 43%
    07:00 +18°C° 0 mm 2 mps 759 mmHg 40%
    08:00 +20°C° 0 mm 2 mps 759 mmHg 37%
    09:00 +23°C° 0 mm 2 mps 760 mmHg 35%
    10:00 +24°C° 0 mm 3 mps 760 mmHg 29%
    11:00 +26°C° 0 mm 3 mps 760 mmHg 24%
    12:00 +28°C° 0 mm 3 mps 759 mmHg 19%
    13:00 +28°C° 0 mm 4 mps 759 mmHg 19%
    14:00 +29°C° 0 mm 4 mps 758 mmHg 18%
    15:00 +29°C° 0 mm 4 mps 757 mmHg 17%
    16:00 +27°C° 0 mm 4 mps 757 mmHg 21%
    17:00 +26°C° 0 mm 3 mps 757 mmHg 24%
    18:00 +24°C° 0 mm 2 mps 757 mmHg 27%
    19:00 +23°C° 0 mm 2 mps 758 mmHg 29%
    20:00 +21°C° 0 mm 2 mps 758 mmHg 31%
    21:00 +21°C° 0 mm 1 mps 759 mmHg 32%
    22:00 +21°C° 0 mm 1 mps 758 mmHg 33%
    23:00 +20°C° 0 mm 1 mps 758 mmHg 34%
    Show more